Helicity
332 331 308 288 271 273 265 263 229 237 249 265 249 251 273 273 269 258 269 262 273 262
332 328 327 309 318 285 283 288 272 232 230 270 303 303 302 306 319 307 299 281 277 295
331 365 361 357 338 296 301 298 296 274 280 311 318 351 375 366 347 358 352 314 301 310
273 301 351 376 354 328 314 310 304 295 326 339 355 385 415 433 403 369 361 329 295 288
252 257 305 322 315 327 321 319 296 316 340 366 331 377 427 442 392 380 354 329 311 291
254 278 280 291 275 296 303 327 356 362 411 413 344 328 361 413 398 367 367 328 284 256
227 235 237 238 256 288 374 428 421 524 513 541 534 481 312 401 370 362 364 340 281 226
182 193 229 279 308 350 423 512 620 739 694 650 650 533 372 332 286 265 307 301 259 234
222 227 262 309 348 398 463 551 635 744 801 790 727 786 412 413 306 319 365 330 275 176
216 262 282 322 382 438 496 546 586 565 614 676 732 555 475 525 672 511 391 212 226 226
200 259 300 332 364 443 504 532 575 592 675 733 598 625 473 374 428 364 314 246 185 139
201 251 301 348 404 455 559 624 668 711 700 651 569 421 292 310 287 242 206 155 132 131
247 281 340 396 448 518 595 668 691 708 662 510 519 240 203 163 174 224 199 152 134 112
266 340 415 494 547 612 654 730 737 766 665 604 458 266 198 177 253 209 159 148 123 120
Wind_Speed
60 59 57 54 49 48 45 37 38 34 31 32 30 30 33 32 30 26 26 25 25 24
61 64 64 61 60 58 55 50 42 39 35 32 30 30 30 29 29 30 29 28 25 25
61 62 65 63 63 61 58 54 47 45 43 38 34 29 28 28 27 26 27 26 25 25
64 64 64 64 63 62 61 57 53 50 48 43 39 35 31 27 25 24 26 26 26 27
60 64 65 64 59 59 61 60 55 53 51 45 39 36 34 33 29 28 26 23 23 23
45 50 63 66 66 60 57 55 59 55 52 46 41 38 35 29 26 25 26 23 24 24
41 45 52 62 67 62 58 52 50 46 43 41 37 34 34 29 26 23 26 21 18 19
34 38 45 51 57 57 55 53 45 35 38 43 37 35 35 29 26 23 20 20 20 21
30 30 33 41 46 49 50 48 47 45 39 32 30 27 36 27 25 20 14 12 18 23
30 27 27 30 36 42 44 44 45 46 35 35 29 28 27 23 20 13 13 12 14 21
30 27 25 25 27 32 36 40 40 39 36 33 28 22 22 20 16 17 16 10 9 6
31 25 21 20 23 26 27 30 30 30 31 27 22 19 20 17 14 11 11 9 5 6
34 29 25 21 17 20 22 23 23 23 23 24 20 19 16 14 15 9 7 7 5 4
35 30 25 22 18 14 14 18 19 17 16 17 15 15 15 17 10 10 10 5 11 10
Wind_Direction
251 252 254 254 254 252 252 250 253 245 238 243 243 248 254 256 257 258 261 263 272 278
254 253 255 256 257 258 258 257 253 249 243 242 241 243 247 250 253 258 263 267 272 277
258 255 256 257 256 256 257 255 252 249 250 246 244 240 241 248 250 252 262 266 270 278
261 260 257 257 256 255 256 254 252 248 249 245 245 241 241 242 243 244 255 263 268 276
263 262 259 258 255 255 255 255 252 249 249 248 243 244 241 239 241 242 249 257 267 275
265 263 259 258 257 254 254 256 258 257 251 254 257 262 260 254 249 250 252 260 267 277
270 266 265 261 258 256 253 254 257 263 255 251 250 262 256 263 262 267 270 275 281 286
279 273 267 263 259 257 253 253 245 252 253 249 256 255 257 259 256 257 268 282 288 292
290 277 269 265 261 257 254 252 250 250 243 236 250 229 233 252 252 258 271 277 295 301
292 286 272 264 260 256 252 249 250 246 240 244 248 239 232 223 247 241 260 276 292 292
291 287 281 267 258 256 251 246 244 242 242 244 240 225 219 228 239 262 267 274 277 302
286 282 280 268 259 253 247 245 242 237 236 233 229 222 219 227 234 246 257 251 251 289
283 279 275 274 267 259 248 239 236 233 232 226 226 220 214 218 234 214 211 265 281 332
281 278 274 269 264 251 237 231 223 219 229 220 211 210 218 228 227 203 243 258 287 324